Munster, IL

7:09 AM CST on February 11, 2016 (GMT -0600)
Lansing Municipal

Weather History for KIGQ - March, 2013

Change the Weather History Date:

Sunday, March 24, 2013

  Actual Average (KMDW) Record (KMDW)
Temperature  
Mean Temperature 33 °F 42 °F  
Max Temperature 35 °F 50 °F 79 °F (1939)
Min Temperature 31 °F 34 °F 5 °F (1974)
Degree Days  
Heating Degree Days 32 23  
Month to date heating degree days 659  
Since 1 July heating degree days 5170  
Cooling Degree Days 0 0  
Month to date cooling degree days 0  
Year to date cooling degree days 0  
Moisture  
Dew Point 25 °F    
Average Humidity 71    
Maximum Humidity 92    
Minimum Humidity 62    
Precipitation  
Precipitation 0.00 in 0.08 in 1.26 in (1969)
Month to date precipitation 2.05  
Year to date precipitation 6.05  
Sea Level Pressure  
Sea Level Pressure 29.79 in    
Wind  
Wind Speed 11 mph (NE)    
Max Wind Speed 24 mph    
Max Gust Speed 34 mph    
Visibility 9 miles    
Events Snow    
T = Trace of Precipitation, MM = Missing Value Source: NWS Daily Summary

Daily Weather History Graph

Daily Weather History Graph

Search for Another Location

Airport or City:

Trip Planner

Search our weather history database for the weather conditions in past years. The results will help you decide how hot, cold, wet, or windy it might be!

Date:

Astronomy

Mar. 24, 2013 Rise Set
Actual Time 6:46 AM CDT 7:06 PM CDT
Civil Twilight 6:18 AM CDT 7:34 PM CDT
Nautical Twilight 5:45 AM CDT 8:07 PM CDT
Astronomical Twilight 5:12 AM CDT 8:40 PM CDT
Moon 4:33 PM CDT (3/24) 4:58 AM CDT (3/24)
Length of Visible Light 13h 16m
Length of Day
12h 20m
Waxing Gibbous, 92% of the Moon is Illuminated
Mar 24
Waxing Gibbous
Mar 27
Full
Apr 2
Last Quarter
Apr 10
New
Apr 18
First Quarter

Hourly Weather History & Observations

Time (CDT) Temp. Windchill Dew Point Humidity Pressure Visibility Wind Dir Wind Speed Gust Speed Precip Events Conditions
12:15 AM 31.5 °F 26.8 °F 23.0 °F 71% 30.02 in 10.0 mi NE 4.6 mph - N/A   Clear
12:35 AM 31.6 °F 23.7 °F 23.4 °F 71% 30.01 in 10.0 mi ENE 9.2 mph - N/A   Clear
12:55 AM 31.8 °F 24.6 °F 23.5 °F 71% 30.01 in 10.0 mi ENE 8.1 mph - N/A   Clear
1:15 AM 31.6 °F 23.7 °F 23.4 °F 71% 30.00 in 10.0 mi NE 9.2 mph - N/A   Clear
1:35 AM 31.6 °F 23.7 °F 23.0 °F 70% 30.00 in 10.0 mi ENE 9.2 mph - N/A   Clear
1:55 AM 31.6 °F 25.1 °F 23.2 °F 71% 29.99 in 10.0 mi NE 6.9 mph - N/A   Clear
2:15 AM 31.6 °F 25.1 °F 23.0 °F 70% 29.99 in 10.0 mi NE 6.9 mph - N/A   Clear
2:35 AM 31.8 °F 24.6 °F 23.5 °F 71% 30.00 in 10.0 mi NE 8.1 mph - N/A   Clear
2:55 AM 31.8 °F 23.9 °F 23.9 °F 73% 29.99 in 10.0 mi NE 9.2 mph - N/A   Clear
3:15 AM 31.6 °F 23.7 °F 23.9 °F 73% 29.98 in 10.0 mi ENE 9.2 mph - N/A   Clear
3:35 AM 31.6 °F 24.4 °F 23.9 °F 73% 29.96 in 10.0 mi NE 8.1 mph - N/A   Scattered Clouds
3:55 AM 31.5 °F 24.2 °F 23.9 °F 74% 29.96 in 10.0 mi NE 8.1 mph - N/A   Scattered Clouds
4:15 AM 31.1 °F 23.7 °F 23.9 °F 75% 29.96 in 10.0 mi NE 8.1 mph - N/A   Clear
4:35 AM 31.1 °F 25.4 °F 24.1 °F 75% 29.95 in 10.0 mi NE 5.8 mph - N/A   Mostly Cloudy
4:55 AM 31.1 °F 24.5 °F 24.3 °F 76% 29.94 in 10.0 mi ENE 6.9 mph - N/A   Overcast
5:15 AM 31.1 °F 26.4 °F 24.6 °F 77% 29.94 in 10.0 mi ENE 4.6 mph - N/A   Overcast
5:35 AM 31.1 °F 25.4 °F 24.8 °F 77% 29.93 in 10.0 mi NE 5.8 mph - N/A   Overcast
5:55 AM 31.1 °F 23.7 °F 24.4 °F 76% 29.91 in 10.0 mi ENE 8.1 mph - N/A   Overcast
6:15 AM 31.1 °F 23.1 °F 23.9 °F 75% 29.91 in 10.0 mi ENE 9.2 mph - N/A   Overcast
6:35 AM 31.3 °F 23.9 °F 23.5 °F 73% 29.90 in 10.0 mi ENE 8.1 mph - N/A   Overcast
6:55 AM 31.5 °F 23.5 °F 23.2 °F 71% 29.88 in 10.0 mi ENE 9.2 mph - N/A   Overcast
7:15 AM 31.5 °F 21.8 °F 23.0 °F 71% 29.88 in 10.0 mi ENE 12.7 mph 16.1 mph N/A   Overcast
7:35 AM 31.5 °F 22.9 °F 23.0 °F 71% 29.87 in 10.0 mi ENE 10.4 mph - N/A   Overcast
7:55 AM 31.8 °F 25.4 °F 23.0 °F 70% 29.87 in 10.0 mi ENE 6.9 mph - N/A   Overcast
8:15 AM 32.0 °F 25.6 °F 23.0 °F 69% 29.87 in 10.0 mi ENE 6.9 mph - N/A   Overcast
8:35 AM 32.0 °F 23.6 °F 23.2 °F 70% 29.86 in 10.0 mi ENE 10.4 mph - N/A   Overcast
8:55 AM 32.4 °F 24.0 °F 23.2 °F 69% 29.86 in 10.0 mi ENE 10.4 mph - N/A   Overcast
9:15 AM 32.9 °F 24.7 °F 23.9 °F 69% 29.86 in 10.0 mi NE 10.4 mph - N/A   Overcast
9:35 AM 33.1 °F 24.4 °F 24.6 °F 71% 29.83 in 10.0 mi NE 11.5 mph 17.3 mph N/A   Overcast
9:55 AM 33.8 °F 24.8 °F 24.8 °F 70% 29.82 in 10.0 mi ENE 12.7 mph 19.6 mph N/A   Overcast
10:15 AM 34.5 °F 24.1 °F 24.1 °F 66% 29.80 in 10.0 mi ENE 17.3 mph 20.7 mph N/A   Overcast
10:35 AM 34.5 °F 25.7 °F 23.5 °F 64% 29.79 in 10.0 mi NE 12.7 mph 19.6 mph N/A   Overcast
11:15 AM 33.6 °F 24.6 °F 24.8 °F 70% 29.79 in 10.0 mi ENE 12.7 mph 19.6 mph N/A   Overcast
11:35 AM 33.3 °F 22.8 °F 24.8 °F 71% 29.78 in 10.0 mi NE 16.1 mph 21.9 mph N/A   Overcast
12:15 PM 34.5 °F 25.3 °F 25.5 °F 70% 29.76 in 10.0 mi NE 13.8 mph 23.0 mph N/A   Overcast
12:35 PM 35.6 °F 25.2 °F 25.3 °F 66% 29.74 in 10.0 mi ENE 18.4 mph 24.2 mph N/A   Overcast
12:55 PM 34.9 °F 23.9 °F 25.0 °F 67% 29.73 in 10.0 mi ENE 19.6 mph 25.3 mph N/A   Overcast
1:15 PM 35.6 °F 25.9 °F 25.0 °F 65% 29.71 in 10.0 mi ENE 16.1 mph 24.2 mph N/A   Overcast
1:35 PM 35.1 °F 25.5 °F 23.7 °F 63% 29.70 in 10.0 mi ENE 15.0 mph 25.3 mph N/A   Overcast
1:55 PM 34.9 °F 23.9 °F 24.8 °F 67% 29.69 in 10.0 mi NE 19.6 mph 26.5 mph N/A   Overcast
2:15 PM 34.7 °F 23.7 °F 24.1 °F 65% 29.68 in 10.0 mi NE 19.6 mph 27.6 mph N/A   Overcast
2:35 PM 34.7 °F 23.1 °F 23.9 °F 65% 29.66 in 10.0 mi NNE 21.9 mph 31.1 mph N/A   Overcast
2:55 PM 34.5 °F 24.1 °F 23.5 °F 64% 29.64 in 10.0 mi NE 17.3 mph 31.1 mph N/A   Overcast
3:15 PM 35.1 °F 25.2 °F 23.4 °F 62% 29.63 in 10.0 mi NE 16.1 mph 27.6 mph N/A   Overcast
3:35 PM 34.9 °F 24.2 °F 25.2 °F 68% 29.62 in 10.0 mi NNE 18.4 mph 31.1 mph N/A   Overcast
3:55 PM 35.1 °F 23.8 °F 25.3 °F 68% 29.62 in 10.0 mi NNE 20.7 mph 29.9 mph N/A   Overcast
4:15 PM 35.1 °F 24.5 °F 25.5 °F 68% 29.62 in 10.0 mi NNE 18.4 mph 31.1 mph N/A   Overcast
4:35 PM 35.1 °F 24.5 °F 25.3 °F 68% 29.63 in 10.0 mi NE 18.4 mph 31.1 mph N/A   Overcast
4:55 PM 35.1 °F 24.5 °F 25.3 °F 68% 29.63 in 10.0 mi NNE 18.4 mph 27.6 mph N/A   Overcast
5:15 PM 35.1 °F 26.4 °F 25.5 °F 68% 29.65 in 10.0 mi NNE 12.7 mph 25.3 mph N/A   Overcast
5:35 PM 35.1 °F 24.5 °F 25.2 °F 67% 29.66 in 10.0 mi NNE 18.4 mph 28.8 mph N/A   Overcast
5:55 PM 35.1 °F 25.2 °F 25.2 °F 67% 29.66 in 10.0 mi NNE 16.1 mph 24.2 mph N/A   Overcast
6:15 PM 35.2 °F 25.8 °F 24.8 °F 66% 29.66 in 10.0 mi NNE 15.0 mph 24.2 mph N/A   Overcast
6:35 PM 35.6 °F 25.5 °F 24.8 °F 65% 29.65 in 10.0 mi NNE 17.3 mph 25.3 mph N/A   Overcast
6:55 PM 35.6 °F 25.2 °F 25.5 °F 67% 29.64 in 10.0 mi NNE 18.4 mph 24.2 mph N/A   Overcast
7:15 PM 35.4 °F 26.4 °F 25.5 °F 67% 29.64 in 10.0 mi NNE 13.8 mph 23.0 mph N/A   Overcast
7:35 PM 35.2 °F 26.2 °F 25.5 °F 68% 29.65 in 10.0 mi NE 13.8 mph 28.8 mph N/A   Overcast
7:55 PM 35.1 °F 26.4 °F 25.5 °F 68% 29.65 in 10.0 mi NNE 12.7 mph 24.2 mph N/A   Overcast
8:15 PM 34.2 °F 22.6 °F 27.1 °F 75% 29.65 in 5.0 mi NNE 20.7 mph 33.4 mph N/A Snow Light Snow
8:35 PM 32.5 °F 22.3 °F 29.3 °F 88% 29.67 in 3.0 mi NNE 15.0 mph 26.5 mph N/A Snow Light Snow
8:55 PM 32.0 °F 21.2 °F 29.8 °F 92% 29.67 in 1.0 mi NNE 16.1 mph 26.5 mph N/A Snow Light Snow
9:15 PM 32.0 °F 19.8 °F 29.5 °F 90% 29.67 in 1.0 mi NE 20.7 mph 27.6 mph N/A Snow Light Snow
9:35 PM 31.5 °F 19.4 °F 28.8 °F 90% 29.68 in 1.8 mi NNE 19.6 mph 29.9 mph N/A Snow Light Snow
9:55 PM 31.5 °F 19.4 °F 28.0 °F 87% 29.68 in 2.5 mi NNE 19.6 mph 27.6 mph N/A Snow Light Snow
10:15 PM 31.1 °F 18.9 °F 27.5 °F 87% 29.68 in 2.0 mi NNE 19.6 mph 27.6 mph N/A Snow Light Snow
10:35 PM 31.1 °F 20.1 °F 27.9 °F 88% 29.67 in 2.5 mi NNE 16.1 mph 23.0 mph N/A Snow Light Snow
10:55 PM 32.0 °F 18.9 °F 23.7 °F 71% 29.67 in 7.0 mi NE 24.2 mph 32.2 mph N/A Snow Light Snow
11:15 PM 32.9 °F 20.4 °F 22.1 °F 65% 29.66 in 10.0 mi NE 23.0 mph 34.5 mph N/A   Overcast
11:35 PM 32.7 °F 20.4 °F 22.8 °F 67% 29.66 in 10.0 mi NNE 21.9 mph 28.8 mph N/A   Overcast
11:55 PM 32.9 °F 21.6 °F 21.6 °F 63% 29.66 in 10.0 mi NNE 18.4 mph 32.2 mph N/A   Overcast